STARLINK-32659, 62427

Orbit data source: Space-Track

STARLINK-32659, 62427 is a payload satellite owned by SpaceX/Seattle (US) in LEO that was launched on Mon, 23 Dec 2024 UTC via an FALCON 9 launch vehicle from the Air Force Eastern Test Range (AFETR). Payload-class satellites include a variety of spacecraft equipped with specific instruments for various scientific and technological missions. These include communications satellites like Starlink; space stations such as the ISS; scientific satellites like the Hubble; Earth observation satellites from companies like Planet Labs, Umbra, and HawkEye 360; GPS; miniature CubeSats for education and research; and military/defense satellites.

Loading next visibility...
Identifier
62427, 2024-249U
Orbit
LEO
Country
Flag of USUS
Related business
Manufacturer
SpaceX/Seattle
Mission
Operational Commercial Communications
Bus & Motor
STARLINK V2M, Unknown motor
Mass
730 kg wet, ~700 kg dry
Launch date (UTC)
2024-12-23 (1 year ago)
Launch vehicle
FALCON 9
Launch site
Air Force Eastern Test Range (AFETR)
Object type
Payload
Rocket body
Debris
Shape & HBR
Box + 2 Pan, 17.7 m
Radar Cross Section
33.884 m², Large (>1 m²)

Expand to show TLE details & history
Last TLE update: 1 day ago

TLE from 1 day ago
0 STARLINK-32659
1 62427U 24249U   26170.84634585  .00013045  00000-0  48252-3 0  9998
2 62427  43.0011  97.4560 0001205 273.3972  86.6742 15.27595595 83438
Epoch: 2026-06-19T20:18Z
TLE epoch observation values (Epoch: 2026-06-19T20:18:44.281Z)
Latitude
-0°
Longitude
-115.29797°
Altitude
482.73 km
Speed
7.626 km/s
True Right ascension
06h 29m 49s
True Declination
0° 00' 00"
Sunlit
Object was in daylight at epoch
Visualization orbit readout
Latitude
Unknown
Longitude
Unknown
Altitude
Unknown
Speed
Unknown
Apparent Right ascension
Unknown
Apparent Declination
Unknown
Sunlit
N/A
Visualization observer readout
Local Sidereal Time
07:18:18
Azimuth
Unknown
Elevation
Unknown
Doppler factor
Unknown
Orbital elements
Apogee altitude
485.774 km
Perigee altitude
484.12 km
Semi-major axis
6,863.084 km
Eccentricity
0.00012
Inclination
43.0011°
RAAN
97.456°
Arg. of periapsis
273.3972°
True anomaly
86.68799°
Mean anomaly
86.6742°
Eccentric anomaly
86.68109°
Mean motion
3.81737 °/min
Orbital period
94.31 mins
BSTAR
0.00048252
Loading maneuver chart data...
Computing Atmospheric mass density...
Loading historical data...
Loading historical data...
Loading historical data...
Loading historical data...
Loading historical data...
Loading historical data...
Loading historical data...

Documentation

Showing up to 5 results
|